Probability
0 0 0 0 1 0 0 0 0 1 2 3 3 3 4 8 14 19 20 20 20 19 20 19 17 17 19 19 18 19 21 20 20 19 17 16 15 14 13 12 11 10 10 10
0 0 0 0 1 0 0 0 1 1 2 2 3 5 6 10 15 19 20 19 19 19 20 21 19 17 17 17 18 21 23 21 19 18 18 16 14 13 12 11 9 9 9 10
0 0 0 0 0 0 0 0 1 3 3 2 4 7 9 12 17 21 21 21 20 19 20 21 20 18 17 17 19 22 24 22 18 17 17 16 13 11 10 10 9 9 10 10
0 0 0 0 0 0 0 0 2 4 5 4 6 9 10 13 18 22 24 23 21 21 21 20 19 20 20 21 22 23 24 22 19 17 16 16 13 11 10 10 10 11 10 10
0 0 0 0 0 0 0 0 3 7 8 7 9 11 12 13 16 21 25 24 22 21 20 18 18 19 21 21 23 24 24 22 19 17 16 16 15 12 11 11 12 12 11 11
0 0 0 0 0 0 0 0 3 6 7 8 9 10 10 11 13 17 21 22 20 18 17 16 15 16 17 18 20 22 22 21 19 17 16 17 17 15 15 15 14 13 12 12
0 0 0 0 0 0 0 0 1 2 4 5 5 5 7 10 12 14 16 17 16 14 13 12 12 13 13 15 16 17 18 18 18 18 19 20 19 19 18 18 16 14 13 12
0 0 0 0 0 0 0 0 0 0 1 3 5 5 7 10 12 13 13 13 12 11 9 9 10 11 11 12 13 13 13 14 16 18 19 20 20 19 19 19 17 14 13 12
0 0 0 0 0 0 0 0 0 0 1 4 7 9 10 11 12 12 12 12 11 10 7 7 8 10 10 10 10 11 11 12 14 15 17 18 19 17 17 18 17 14 13 13
0 0 0 0 0 0 0 1 1 1 2 4 7 10 12 12 11 11 12 13 12 12 10 7 7 9 10 10 9 9 10 12 13 14 14 16 17 16 17 18 17 16 15 14
0 0 0 0 1 1 1 2 2 2 3 4 6 9 12 14 13 11 13 14 14 13 12 8 6 7 9 9 8 8 10 12 13 14 14 14 15 15 16 17 16 15 15 15
0 0 0 1 2 2 2 3 3 3 3 4 5 8 11 14 14 14 14 14 14 13 11 8 6 7 7 7 7 8 9 11 13 15 16 14 14 13 12 12 11 10 11 11
0 0 1 2 3 3 3 3 3 3 3 4 5 7 10 12 14 14 13 12 12 11 10 7 7 9 8 7 8 8 9 9 12 15 16 14 13 12 11 9 7 5 5 5
0 1 1 2 2 3 3 3 3 3 3 4 5 7 9 11 13 13 12 10 10 10 10 9 9 10 10 9 9 9 8 8 8 10 12 12 12 12 11 9 7 4 2 2
0 1 1 1 1 2 3 2 1 2 3 4 6 8 10 12 14 14 12 10 9 10 12 12 10 10 12 11 10 9 7 6 6 7 7 8 9 10 11 10 9 6 4 3
0 0 0 0 0 1 1 1 1 1 2 2 4 8 10 11 13 15 13 10 9 10 12 12 11 10 12 13 11 8 6 4 4 5 6 7 7 9 10 10 9 7 5 5
0 0 0 0 0 0 0 0 0 0 1 2 3 6 9 11 13 14 13 11 10 10 11 11 11 10 11 12 9 6 5 4 4 5 6 7 7 8 10 10 9 7 6 6
0 0 0 0 0 0 0 0 0 0 0 2 3 5 9 12 13 15 14 12 10 9 9 10 10 9 8 8 6 5 4 4 5 6 7 7 8 8 9 9 8 7 6 6
1 1 1 1 1 1 1 1 1 1 1 2 3 5 8 11 13 15 15 12 9 8 8 8 8 7 5 5 5 4 4 4 4 6 7 7 7 7 8 8 7 7 6 6
5 4 3 3 3 3 4 3 3 3 3 3 3 5 8 10 11 13 14 11 8 7 7 7 7 5 4 4 4 3 3 3 4 6 6 6 6 6 7 7 7 5 4 4
7 7 7 6 5 4 4 4 3 4 3 3 4 5 7 9 11 12 12 10 7 6 6 7 6 5 4 4 3 3 3 3 4 5 6 6 6 6 6 5 4 3 1 1
7 8 8 8 6 4 3 3 3 3 3 4 5 6 6 8 10 12 11 9 6 5 7 7 5 4 4 3 3 3 3 3 4 5 4 4 4 4 4 4 3 1 0 0
5 6 7 7 6 4 2 2 2 3 4 5 6 6 6 7 8 10 10 8 6 6 7 7 4 3 3 3 3 3 4 4 4 4 4 4 3 3 3 3 2 1 0 0
4 4 4 4 4 3 2 1 1 2 3 3 4 5 5 5 7 8 9 8 6 6 6 5 4 3 4 4 4 4 5 6 6 5 5 4 4 3 3 3 2 1 0 0
3 3 3 3 3 2 2 1 1 1 1 2 2 3 3 4 5 6 8 8 6 5 4 4 3 4 4 5 5 4 5 5 6 5 4 4 3 3 3 3 2 1 0 0
3 3 3 3 3 2 2 2 2 2 1 1 1 2 2 2 2 4 7 7 6 4 3 3 3 3 3 4 4 3 2 3 3 3 3 2 2 2 2 1 1 0 0 0
3 3 3 3 3 3 2 1 1 1 1 1 1 1 1 0 0 2 5 6 6 4 3 3 2 1 2 3 3 2 1 1 1 1 1 1 1 1 1 0 0 0 0 0
Wind_Speed
4 4 2 1 2 2 3 6 7 7 7 7 5 4 3 4 6 7 6 6 7 7 6 6 5 5 5 5 5 6 6 5 5 5 4 3 3 3 2 2 2 2 2 2
3 2 1 2 3 0 1 2 4 4 3 4 3 5 4 4 7 7 6 6 6 5 5 6 6 6 6 5 5 5 6 5 5 4 3 3 3 3 3 2 2 2 2 2
3 4 3 3 3 0 1 1 4 5 6 4 5 6 7 7 7 8 7 7 6 6 6 6 6 6 7 7 5 5 5 5 4 4 3 3 3 2 2 3 2 2 2 2
0 3 1 6 2 2 3 2 1 2 4 6 7 6 5 6 7 6 6 6 4 4 3 3 4 4 5 5 5 5 4 4 4 4 4 3 3 3 3 2 2 2 3 3
3 1 3 4 3 1 3 2 2 1 4 5 5 5 3 2 4 5 6 5 4 4 3 3 4 4 4 4 4 4 4 4 4 4 4 4 4 4 3 3 3 3 3 3
3 3 4 5 5 1 5 2 3 1 4 6 6 3 3 2 3 4 4 4 4 3 3 3 3 5 5 4 4 4 5 5 4 4 4 4 5 4 3 3 3 3 3 3
3 3 5 5 4 3 3 6 4 1 4 5 5 6 5 4 4 4 4 4 5 4 3 2 3 4 5 4 4 5 4 4 3 4 4 4 4 3 3 3 2 3 3 3
2 3 6 5 2 3 6 4 1 1 3 4 4 4 5 5 5 4 4 3 4 4 2 1 2 4 3 3 4 3 3 3 3 4 4 3 3 3 2 3 3 3 2 3
5 6 5 1 2 3 3 2 1 1 3 6 6 5 4 4 5 4 4 3 4 5 3 1 1 3 3 3 2 2 2 3 3 3 3 3 3 3 2 2 3 3 2 3
0 3 2 1 0 1 2 2 2 3 4 5 5 5 5 4 4 3 3 3 3 4 4 3 2 2 4 3 2 3 3 3 3 3 2 2 2 3 3 3 3 3 3 3
1 3 3 3 0 1 2 3 3 3 3 4 5 4 4 4 3 3 2 1 2 3 4 4 3 2 3 3 3 3 3 3 3 3 3 2 2 3 4 4 5 5 5 4
5 5 3 4 3 1 2 2 2 3 2 2 4 4 4 3 3 3 3 2 2 2 3 3 4 3 3 3 3 3 2 3 3 3 3 2 2 2 3 4 5 7 7 6
5 4 3 3 1 1 2 2 2 3 3 2 2 4 4 3 3 3 3 2 2 3 3 3 3 3 3 3 3 3 3 3 2 3 3 3 3 3 3 3 2 3 5 7
2 1 0 1 1 0 1 1 1 2 1 2 3 3 3 3 3 3 4 4 3 3 2 2 2 3 3 3 3 3 3 3 3 3 3 4 4 4 3 3 3 3 4 6
2 2 3 1 1 1 0 1 2 1 1 0 2 3 3 3 4 4 4 3 3 2 2 1 2 3 3 3 4 3 3 2 3 3 3 3 4 3 3 4 3 3 2 3
2 1 1 1 1 1 1 0 1 1 1 1 1 3 4 4 4 3 3 3 3 3 3 3 4 4 3 4 3 3 3 5 3 3 3 3 3 3 3 4 4 4 4 4
1 2 2 2 2 3 2 2 3 3 2 2 3 3 3 3 2 2 3 3 4 4 4 4 5 4 3 4 4 3 3 3 4 3 3 3 3 3 4 4 4 4 5 5
5 5 4 4 3 3 3 3 2 2 2 3 3 2 3 4 4 4 4 3 2 2 3 4 4 4 4 4 4 3 3 3 3 3 3 3 3 3 3 3 4 4 3 3
3 3 3 3 4 3 2 1 1 2 2 2 3 4 4 5 5 4 4 3 3 4 5 4 5 4 4 5 4 3 3 3 3 3 3 4 3 3 3 3 3 3 3 3
0 0 1 1 1 1 1 1 1 2 2 3 3 3 3 3 3 3 3 4 5 5 4 4 4 4 4 4 4 3 3 3 3 3 3 3 3 3 2 2 3 3 3 3
1 1 1 0 1 1 1 1 1 2 3 3 3 4 4 4 4 3 3 3 4 3 3 4 3 3 3 3 3 3 3 3 3 3 3 3 2 2 2 2 2 2 2 2
2 1 2 2 1 3 3 2 2 3 3 3 3 4 4 4 3 3 4 4 3 3 2 2 2 2 2 2 2 2 2 2 2 2 2 2 2 2 2 2 2 1 1 1
2 2 2 2 2 2 2 2 2 2 2 3 4 5 5 4 3 3 3 3 2 3 2 2 2 2 2 2 1 1 1 2 2 2 2 2 2 1 1 1 1 1 1 1
3 3 3 3 2 1 2 3 3 2 1 2 3 3 3 2 1 2 3 3 3 4 2 2 4 4 3 1 1 1 1 1 1 1 1 1 1 1 1 1 1 1 1 1
2 2 3 3 1 2 2 2 1 1 0 0 1 1 1 2 3 2 2 2 3 3 2 2 3 2 2 1 1 1 1 1 1 1 1 1 2 2 1 1 1 1 1 1
3 2 3 3 2 2 2 1 1 0 0 0 0 1 1 0 1 1 1 2 3 2 2 1 1 2 1 2 2 2 1 1 2 2 2 2 2 2 2 2 2 1 1 1
3 2 2 2 2 1 0 1 1 1 1 2 1 1 1 1 1 2 2 2 2 2 1 1 2 2 2 2 2 2 2 2 2 2 2 2 2 2 2 2 1 1 1 1
Wind_Direction
220 221 183 216 241 184 167 175 180 208 204 223 199 164 178 166 139 131 136 147 157 163 171 170 167 171 175 179 179 174 166 173 189 194 193 194 192 194 196 201 208 212 215 230
324 299 346 346 334 42 116 146 164 158 234 234 182 125 120 150 143 141 146 152 155 166 173 172 174 177 178 178 180 170 170 184 191 189 189 193 197 196 196 206 215 202 204 216
285 304 31 328 300 109 116 137 164 193 220 180 152 155 166 167 160 163 163 163 167 174 182 186 186 177 178 184 176 171 178 184 186 185 190 200 205 203 212 216 214 214 219 209
161 30 245 246 255 107 98 51 92 163 173 167 169 174 168 157 156 155 152 154 164 168 168 166 163 164 164 161 165 174 183 190 189 188 199 205 200 209 220 214 213 222 231 230
118 148 267 288 303 95 104 346 347 122 146 139 112 78 36 82 131 148 152 150 153 152 147 140 147 154 139 139 154 165 179 189 197 195 198 201 208 220 221 210 221 226 230 228
132 155 222 252 284 250 94 342 309 138 155 147 114 115 242 208 125 111 122 132 125 113 100 111 141 148 142 151 160 182 194 197 196 194 194 205 214 221 216 207 220 228 239 235
158 195 251 266 298 67 127 234 271 164 148 142 157 186 197 149 123 118 119 128 122 117 120 160 167 147 154 164 193 205 197 190 193 199 203 206 207 213 213 211 217 231 245 249
151 178 246 281 36 147 214 228 210 138 157 138 144 135 132 136 136 129 119 129 134 134 144 204 156 140 154 202 214 202 179 182 197 204 208 202 195 212 210 201 211 235 250 268
181 210 234 256 168 198 178 158 160 145 135 131 137 136 139 149 148 148 146 150 154 149 152 190 159 147 167 236 231 183 179 194 204 207 211 200 196 205 208 205 211 227 231 247
123 267 269 273 136 53 108 117 130 133 132 128 144 150 149 153 157 154 152 154 152 149 159 185 190 176 188 212 197 174 198 217 214 205 214 218 213 204 204 211 215 222 222 232
275 281 336 333 14 116 69 78 82 90 105 130 129 138 143 149 160 158 151 153 154 165 175 185 179 199 214 197 176 184 209 216 214 211 209 221 232 227 219 221 213 210 220 215
231 235 203 255 264 141 110 94 95 90 72 97 132 144 144 161 176 166 164 161 171 184 185 189 183 192 216 200 184 189 215 227 219 213 214 213 220 266 278 246 238 225 220 212
219 229 205 235 280 97 118 122 111 114 134 142 142 147 152 165 179 171 173 173 181 188 191 191 186 204 221 208 195 196 211 223 220 214 214 215 214 217 255 286 277 252 243 229
231 152 14 298 284 312 117 122 128 120 146 164 163 154 147 148 151 167 190 197 200 188 181 189 193 211 221 206 201 207 214 221 221 223 220 216 217 222 223 231 251 271 271 249
255 207 210 254 311 351 46 100 74 48 18 210 160 155 155 159 176 196 205 189 172 162 182 204 225 239 226 201 201 209 215 226 225 227 228 225 225 224 225 228 226 236 251 259
257 295 273 270 264 273 288 145 162 204 218 209 169 177 181 179 183 190 184 171 169 193 212 220 236 241 222 204 203 210 220 235 238 229 231 234 230 226 224 221 221 223 225 229
218 265 260 265 267 278 275 246 214 209 222 208 204 194 182 172 163 180 194 196 197 211 218 222 236 239 222 211 207 215 223 230 236 238 236 233 230 229 227 221 218 225 231 224
205 212 209 210 228 253 279 278 251 212 214 217 206 190 184 187 192 204 206 204 211 248 248 240 236 233 229 220 214 215 216 223 224 228 236 236 236 233 228 226 224 229 240 234
196 204 227 225 214 206 217 239 258 245 230 210 195 203 207 208 204 202 192 186 200 234 252 254 244 236 234 230 222 214 218 225 233 236 235 241 243 235 227 224 221 224 226 220
56 196 276 196 173 183 206 231 243 251 245 227 208 202 206 217 208 193 189 206 218 222 227 234 239 241 235 226 220 215 217 223 231 237 235 231 232 233 224 221 222 228 228 222
360 349 351 328 307 292 257 244 237 251 251 234 210 206 209 215 211 195 190 228 251 237 224 224 226 234 230 222 218 213 212 218 224 224 220 223 228 230 229 220 216 222 228 228
322 318 315 309 308 301 287 271 257 255 252 241 229 218 212 217 218 220 217 221 229 220 213 215 219 214 209 202 195 199 208 210 210 208 208 208 206 210 218 212 214 221 225 220
310 311 313 296 265 263 283 289 281 271 253 230 228 222 214 215 204 198 233 242 215 203 197 206 201 183 184 177 182 194 205 197 191 193 199 193 188 189 182 176 180 174 176 189
319 307 300 293 286 299 299 294 292 282 262 255 245 225 202 196 224 229 214 204 198 189 187 195 186 176 168 167 164 178 187 152 148 156 162 166 147 124 117 118 118 103 96 103
309 301 310 309 274 244 249 272 305 316 350 3 341 311 230 185 189 206 191 177 172 167 173 182 173 161 152 127 129 126 119 131 138 131 112 103 107 108 103 106 110 105 87 78
299 292 284 270 244 227 214 200 189 216 144 107 22 2 23 70 129 128 130 142 138 135 135 143 136 128 136 129 121 123 118 112 104 101 104 111 111 108 101 97 96 102 105 107
305 308 309 322 324 297 169 130 134 150 167 158 160 168 131 117 114 115 116 111 111 111 105 104 105 109 106 105 104 101 95 94 97 102 107 106 107 106 105 104 101 93 88 103